Weather in Kirovskiy

Russia / Astrakhan Oblast     45°50′47″N   48°07′34″E
temp.,
°C
wind,
m/s
gust,
m/s
humid.,
%
clouds,
%
prec.,
mm/h
press.,
hPa
HPBL,
m
27 november, sat
sat2701:00+4ese586692 0.0 1026402
04:00+4ese6973100 0.0 1025427
07:00+5ese5974100 0.0 1024427
10:00+5ese6876100 0.0 1024457
13:00+5ese6873100 0.0 1023521
16:00+5ese5872100 0.0 1022471
19:00+5ese597281 0.0 1022383
22:00+5ese596892 0.0 1022308
28 november, sun
sun2801:00+6ese376876 0.0 1021213
04:00+5ese487724 0.0 1020149
07:00+5ese3685100 0.0 1020105
10:00+7se4875100 0.0 1020214
13:00+8se5769100 0.0 1019288
16:00+8ese467294 0.0 1019255
19:00+5e3681100 0.0 1020125
22:00+7ese3674100 0.0 1020161
29 november, mon
mon2901:00+6e3576100 0.0 102093
04:00+6ese487397 0.0 1019137
07:00+5ese227766 0.0 102026
10:00+7ese366684 0.0 1021144
13:00+10se46505 0.0 1020321
16:00+8se58635 0.0 1019244
19:00+7se410725 0.0 1019234
22:00+7se613745 0.0 1017294
30 november, tue
tue3001:00+8sse6157682 0.0 1015341
04:00+8se7167655 0.0 1012402
07:00+8se91983100 0.0 1008496
10:00+9se81992100 0.0 1007462
13:00+11wsw4883100 0.0 1007508
16:00+11e3584100 0.0 1005225
19:00+10nne2292100 0.0 100629
22:00+8sse1194100 0.0 100411
1 december, wed
wed101:00+8e339514 0.1 100047
04:00+7ne3498100 0.1 99866
07:00+8sw4597100 0.1 998106
10:00+10nw413903 0.7 1000447
13:00+13w1021560 0.0 10011610
16:00+9nw111674100 0.0 10041120
19:00+6nw71470100 0.0 1007795
22:00+5w3664100 0.0 1011351